Weather History for KMCB - October, 2014

Change the Weather History Date:

Wednesday, October 8, 2014

  Actual Average Record
Temperature  
Mean Temperature 75 °F -  
Max Temperature 86 °F 79 °F 92 °F (1990)
Min Temperature 64 °F 55 °F 38 °F (1987)
Cooling Degree Days 10    
Growing Degree Days 25 (Base 50)    
Moisture  
Dew Point 66 °F    
Average Humidity 84    
Maximum Humidity 97    
Minimum Humidity 46    
Precipitation  
Precipitation 0.00 in - - ()
Sea Level Pressure  
Sea Level Pressure 30.08 in    
Wind  
Wind Speed 1 mph (SSE)    
Max Wind Speed 8 mph    
Max Gust Speed -    
Visibility 5 miles    
Events Fog    
Averages and records for this station are not official NWS values.
T = Trace of Precipitation, MM = Missing Value Source: NWS Daily Summary

Daily Weather History Graph

Daily Weather History Graph

Search for Another Location

Airport or City:

Trip Planner

Search our weather history database for the weather conditions in past years. The results will help you decide how hot, cold, wet, or windy it might be!

Date:

Astronomy

Oct. 08, 2014 Rise Set
Actual Time 7:00 AM CDT 6:38 PM CDT
Civil Twilight 6:35 AM CDT 7:02 PM CDT
Nautical Twilight 6:07 AM CDT 7:30 PM CDT
Astronomical Twilight 5:39 AM CDT 7:58 PM CDT
Moon 6:56 PM CDT (10/8) 7:05 AM CDT (10/8)
Length of Visible Light 12h 26m
Length of Day
11h 38m
Full, 100% of the Moon is Illuminated
Oct 8
Full
Oct 15
Last Quarter
Oct 23
New
Oct 30
First Quarter
Nov 6
Full

Hourly Weather History & Observations

Time (CDT) Temp. Heat Index Dew Point Humidity Pressure Visibility Wind Dir Wind Speed Gust Speed Precip Events Conditions
12:53 AM 69.1 °F - 66.9 °F 93% 30.05 in 10.0 mi South 4.6 mph - N/A   Clear
1:53 AM 69.1 °F - 66.9 °F 93% 30.05 in 9.0 mi Calm Calm - N/A   Clear
2:53 AM 66.9 °F - 64.9 °F 93% 30.05 in 10.0 mi Calm Calm - N/A   Clear
3:45 AM 64.0 °F - 62.1 °F 93% 30.06 in 4.0 mi Calm Calm - N/A   Scattered Clouds
3:48 AM 64.4 °F - 62.6 °F 94% 30.06 in 1.8 mi Calm Calm - N/A   Mostly Cloudy
3:53 AM 64.9 °F - 63.0 °F 93% 30.04 in 1.0 mi Calm Calm - N/A   Mist
4:07 AM 64.9 °F - 64.0 °F 97% 30.06 in 0.8 mi Calm Calm - N/A   Mist
4:18 AM 64.0 °F - 63.0 °F 96% 30.06 in 0.2 mi Calm Calm - N/A Fog Fog
4:53 AM 64.9 °F - 63.0 °F 93% 30.05 in 0.2 mi Calm Calm - N/A Fog Fog
5:01 AM 64.9 °F - 64.0 °F 97% 30.06 in 0.8 mi Calm Calm - N/A   Mist
5:13 AM 64.0 °F - 63.0 °F 96% 30.06 in 0.2 mi Calm Calm - N/A Fog Fog
5:40 AM 64.9 °F - 64.0 °F 97% 30.08 in 0.5 mi Calm Calm - N/A Fog Fog
5:53 AM 64.9 °F - 64.0 °F 97% 30.07 in 0.5 mi Calm Calm - N/A Fog Fog
6:02 AM 66.0 °F - 64.0 °F 93% 30.09 in 0.2 mi Calm Calm - N/A Fog Fog
6:11 AM 66.0 °F - 64.0 °F 93% 30.09 in 0.8 mi Calm Calm - N/A   Overcast
6:27 AM 66.9 °F - 64.9 °F 93% 30.09 in 0.2 mi Calm Calm - N/A Fog Fog
6:37 AM 66.9 °F - 64.9 °F 93% 30.10 in 0.8 mi Calm Calm - N/A   Mist
6:53 AM 66.9 °F - 66.0 °F 97% 30.09 in 1.8 mi Calm Calm - N/A   Overcast
7:07 AM 66.0 °F - 64.9 °F 96% 30.10 in 0.2 mi Calm Calm - N/A Fog Fog
7:53 AM 66.9 °F - 66.0 °F 97% 30.10 in 0.2 mi Calm Calm - N/A Fog Fog
8:53 AM 69.1 °F - 68.0 °F 96% 30.12 in 0.2 mi Calm Calm - N/A Fog Fog
9:27 AM 72.0 °F - 70.0 °F 93% 30.14 in 0.5 mi Calm Calm - N/A Fog Fog
9:40 AM 75.0 °F - 70.0 °F 84% 30.14 in 1.2 mi Calm Calm - N/A   Haze
9:44 AM 75.0 °F - 70.0 °F 84% 30.14 in 3.0 mi Calm Calm - N/A   Haze
9:53 AM 75.9 °F - 71.1 °F 85% 30.13 in 9.0 mi South 3.5 mph - N/A   Clear
10:53 AM 81.0 °F 83.3 °F 66.9 °F 62% 30.13 in 10.0 mi Calm Calm - N/A   Clear
11:53 AM 84.0 °F 85.4 °F 64.0 °F 51% 30.12 in 10.0 mi Calm Calm - N/A   Clear
12:53 PM 84.9 °F 86.6 °F 64.9 °F 51% 30.10 in 10.0 mi SSE 8.1 mph - N/A   Partly Cloudy
1:53 PM 86.0 °F 87.3 °F 64.0 °F 48% 30.08 in 10.0 mi Variable 3.5 mph - N/A   Clear
2:53 PM 86.0 °F 88.2 °F 66.0 °F 51% 30.06 in 10.0 mi South 6.9 mph - N/A   Scattered Clouds
3:53 PM 86.0 °F 86.8 °F 63.0 °F 46% 30.05 in 10.0 mi South 6.9 mph - N/A   Clear
4:53 PM 84.0 °F 85.8 °F 64.9 °F 53% 30.04 in 10.0 mi South 6.9 mph - N/A   Partly Cloudy
5:53 PM 82.0 °F 84.5 °F 66.9 °F 60% 30.04 in 10.0 mi SE 4.6 mph - N/A   Clear
6:53 PM 78.1 °F - 69.1 °F 74% 30.04 in 10.0 mi Calm Calm - N/A   Clear
7:53 PM 75.0 °F - 68.0 °F 79% 30.06 in 10.0 mi Calm Calm - N/A   Clear
8:53 PM 72.0 °F - 68.0 °F 87% 30.07 in 10.0 mi Calm Calm - N/A   Scattered Clouds
9:53 PM 71.1 °F - 68.0 °F 90% 30.09 in 10.0 mi Calm Calm - N/A   Clear
10:53 PM 71.1 °F - 66.9 °F 87% 30.09 in 10.0 mi SE 3.5 mph - N/A   Clear
11:53 PM 71.1 °F - 68.0 °F 90% 30.08 in 10.0 mi SSE 3.5 mph - N/A   Clear